TimeEST,TemperatureF,Dew PointF,Humidity,Sea Level PressureIn,VisibilityMPH,Wind Direction,Wind SpeedMPH,Gust SpeedMPH,PrecipitationIn,Events,Conditions,WindDirDegrees,DateUTC
12:53 AM,-8.0,-11.9,83,29.87,10.0,Calm,Calm,-,N/A,,Scattered Clouds,0,2013-01-04 05:53:00
1:53 AM,-5.1,-11.0,76,29.86,10.0,Calm,Calm,-,N/A,,Overcast,0,2013-01-04 06:53:00
2:53 AM,-5.1,-11.0,76,29.84,10.0,Calm,Calm,-,N/A,,Overcast,0,2013-01-04 07:53:00
3:53 AM,-6.0,-11.0,79,29.82,10.0,Calm,Calm,-,N/A,,Mostly Cloudy,0,2013-01-04 08:53:00
4:53 AM,-9.0,-14.1,79,29.82,7.0,Calm,Calm,-,0.00,Snow,Light Snow,0,2013-01-04 09:53:00
5:53 AM,-0.9,-7.1,75,29.81,7.0,South,3.5,-,0.00,Snow,Light Snow,190,2013-01-04 10:53:00
6:38 AM,3.2,-4.0,72,29.74,10.0,South,4.6,-,0.00,,Overcast,180,2013-01-04 11:38:00
6:53 AM,3.9,-4.0,70,29.79,10.0,SSW,5.8,-,0.00,,Overcast,200,2013-01-04 11:53:00
7:53 AM,6.8,-2.2,67,29.73,10.0,Variable,5.8,-,N/A,,Overcast,0,2013-01-04 12:53:00
8:53 AM,7.0,-2.0,67,29.76,10.0,SSW,6.9,-,N/A,,Overcast,210,2013-01-04 13:53:00
9:53 AM,9.0,-0.0,67,29.73,10.0,SSW,8.1,-,N/A,,Overcast,210,2013-01-04 14:53:00
10:53 AM,12.9,3.0,65,29.70,10.0,SSW,5.8,-,N/A,,Mostly Cloudy,200,2013-01-04 15:53:00
11:53 AM,18.0,8.1,65,29.65,10.0,SSW,5.8,-,N/A,,Scattered Clouds,210,2013-01-04 16:53:00
12:53 PM,21.0,12.0,68,29.60,10.0,SSW,9.2,-,N/A,,Overcast,200,2013-01-04 17:53:00
1:53 PM,25.0,15.1,66,29.58,9.0,SSW,9.2,-,N/A,,Overcast,210,2013-01-04 18:53:00
2:53 PM,27.0,17.1,66,29.58,5.0,SSW,11.5,19.6,0.00,Snow,Light Snow,210,2013-01-04 19:53:00
3:35 PM,26.6,17.6,69,29.55,2.0,SW,13.8,24.2,0.00,Snow,Light Snow,220,2013-01-04 20:35:00
3:53 PM,25.0,18.0,75,29.58,2.5,SSW,10.4,21.9,0.00,Snow,Light Snow,210,2013-01-04 20:53:00
4:19 PM,24.8,19.4,80,29.55,4.0,SW,10.4,19.6,0.00,Snow,Light Snow,220,2013-01-04 21:19:00
4:53 PM,25.0,19.0,78,29.58,5.0,SW,8.1,-,0.00,Snow,Light Snow,220,2013-01-04 21:53:00
5:53 PM,25.0,19.0,78,29.58,7.0,SW,11.5,19.6,0.00,,Overcast,220,2013-01-04 22:53:00
6:53 PM,25.0,19.0,78,29.59,9.0,SW,10.4,-,0.00,,Overcast,220,2013-01-04 23:53:00
7:53 PM,25.0,19.0,78,29.59,10.0,South,8.1,-,N/A,,Overcast,190,2013-01-05 00:53:00
8:53 PM,25.0,19.0,78,29.60,10.0,South,6.9,-,N/A,,Overcast,190,2013-01-05 01:53:00
9:53 PM,26.1,19.0,75,29.59,10.0,SSW,5.8,-,N/A,,Overcast,210,2013-01-05 02:53:00
10:53 PM,26.1,19.9,78,29.59,10.0,SSW,6.9,-,N/A,,Overcast,210,2013-01-05 03:53:00
11:53 PM,27.0,19.9,75,29.59,5.0,SSW,5.8,-,0.00,Snow,Light Snow,210,2013-01-05 04:53:00